Year,Month,Day,Hour,Minute,Value (Times are PST for temperature in C)
2021,04,11,00,00,2.50
2021,04,11,00,01,2.50
2021,04,11,00,02,2.50
2021,04,11,00,03,2.50
2021,04,11,00,04,2.50
2021,04,11,00,05,2.40
2021,04,11,00,06,2.40
2021,04,11,00,07,2.40
2021,04,11,00,08,2.40
2021,04,11,00,09,2.30
2021,04,11,00,10,2.30
2021,04,11,00,11,2.30
2021,04,11,00,12,2.30
2021,04,11,00,13,2.30
2021,04,11,00,14,2.30
2021,04,11,00,15,2.30
2021,04,11,00,16,2.30
2021,04,11,00,17,2.30
2021,04,11,00,18,2.30
2021,04,11,00,19,2.30
2021,04,11,00,20,2.20
2021,04,11,00,21,2.30
2021,04,11,00,22,2.30
2021,04,11,00,23,2.30
2021,04,11,00,24,2.30
2021,04,11,00,25,2.40
2021,04,11,00,26,2.50
2021,04,11,00,27,2.50
2021,04,11,00,28,2.60
2021,04,11,00,29,2.60
2021,04,11,00,30,2.60
2021,04,11,00,31,2.60
2021,04,11,00,32,2.60
2021,04,11,00,33,2.60
2021,04,11,00,34,2.60
2021,04,11,00,35,2.60
2021,04,11,00,36,2.60
2021,04,11,00,37,2.60
2021,04,11,00,38,2.70
2021,04,11,00,39,2.70
2021,04,11,00,40,2.70
2021,04,11,00,41,2.70
2021,04,11,00,42,2.70
2021,04,11,00,43,2.70
2021,04,11,00,44,2.80
2021,04,11,00,45,2.70
2021,04,11,00,46,2.70
2021,04,11,00,47,2.70
2021,04,11,00,48,2.80
2021,04,11,00,49,2.80
2021,04,11,00,50,2.80
2021,04,11,00,51,2.90
2021,04,11,00,52,2.90
2021,04,11,00,53,3.00
2021,04,11,00,54,3.00
2021,04,11,00,55,3.10
2021,04,11,00,56,3.10
2021,04,11,00,57,3.00
2021,04,11,00,58,3.00
2021,04,11,00,59,3.00
2021,04,11,01,00,3.00
2021,04,11,01,01,2.90
2021,04,11,01,02,2.90
2021,04,11,01,03,2.90
2021,04,11,01,04,2.90
2021,04,11,01,05,2.90
2021,04,11,01,06,2.90
2021,04,11,01,07,2.80
2021,04,11,01,08,2.80
2021,04,11,01,09,2.80
2021,04,11,01,10,2.80
2021,04,11,01,11,2.80
2021,04,11,01,12,2.80
2021,04,11,01,13,2.80
2021,04,11,01,14,2.70
2021,04,11,01,15,2.70
2021,04,11,01,16,2.70
2021,04,11,01,17,2.70
2021,04,11,01,18,2.60
2021,04,11,01,19,2.60
2021,04,11,01,20,2.60
2021,04,11,01,21,2.60
2021,04,11,01,22,2.60
2021,04,11,01,23,2.50
2021,04,11,01,24,2.50
2021,04,11,01,25,2.50
2021,04,11,01,26,2.50
2021,04,11,01,27,2.50
2021,04,11,01,28,2.50
2021,04,11,01,29,2.40
2021,04,11,01,30,2.40
2021,04,11,01,31,2.40
2021,04,11,01,32,2.40
2021,04,11,01,33,2.40
2021,04,11,01,34,2.30
2021,04,11,01,35,2.30
2021,04,11,01,36,2.30
2021,04,11,01,37,2.30
2021,04,11,01,38,2.30
2021,04,11,01,39,2.30
2021,04,11,01,40,2.30
2021,04,11,01,41,2.20
2021,04,11,01,42,2.20
2021,04,11,01,43,2.20
2021,04,11,01,44,2.10
2021,04,11,01,45,2.10
2021,04,11,01,46,2.10
2021,04,11,01,47,2.00
2021,04,11,01,48,2.00
2021,04,11,01,49,1.90
2021,04,11,01,50,1.90
2021,04,11,01,51,1.90
2021,04,11,01,52,1.80
2021,04,11,01,53,1.80
2021,04,11,01,54,1.80
2021,04,11,01,55,1.80
2021,04,11,01,56,1.70
2021,04,11,01,57,1.70
2021,04,11,01,58,1.70
2021,04,11,01,59,1.70
2021,04,11,02,00,1.70
2021,04,11,02,01,1.60
2021,04,11,02,02,1.60
2021,04,11,02,03,1.60
2021,04,11,02,04,1.60
2021,04,11,02,05,1.60
2021,04,11,02,06,1.50
2021,04,11,02,07,1.50
2021,04,11,02,08,1.50
2021,04,11,02,09,1.40
2021,04,11,02,10,1.40
2021,04,11,02,11,1.40
2021,04,11,02,12,1.40
2021,04,11,02,13,1.40
2021,04,11,02,14,1.40
2021,04,11,02,15,1.30
2021,04,11,02,16,1.30
2021,04,11,02,17,1.30
2021,04,11,02,18,1.30
2021,04,11,02,19,1.30
2021,04,11,02,20,1.20
2021,04,11,02,21,1.20
2021,04,11,02,22,1.20
2021,04,11,02,23,1.20
2021,04,11,02,24,1.20
2021,04,11,02,25,1.10
2021,04,11,02,26,1.10
2021,04,11,02,27,1.10
2021,04,11,02,28,1.10
2021,04,11,02,29,1.10
2021,04,11,02,30,1.10
2021,04,11,02,31,1.00
2021,04,11,02,32,1.00
2021,04,11,02,33,1.00
2021,04,11,02,34,1.00
2021,04,11,02,35,1.00
2021,04,11,02,36,0.90
2021,04,11,02,37,0.90
2021,04,11,02,38,0.90
2021,04,11,02,39,0.90
2021,04,11,02,40,0.80
2021,04,11,02,41,0.80
2021,04,11,02,42,0.80
2021,04,11,02,43,0.80
2021,04,11,02,44,0.80
2021,04,11,02,45,0.70
2021,04,11,02,46,0.70
2021,04,11,02,47,0.70
2021,04,11,02,48,0.70
2021,04,11,02,49,0.70
2021,04,11,02,50,0.70
2021,04,11,02,51,0.70
2021,04,11,02,52,0.70
2021,04,11,02,53,0.70
2021,04,11,02,54,0.70
2021,04,11,02,55,0.60
2021,04,11,02,56,0.60
2021,04,11,02,57,0.60
2021,04,11,02,58,0.60
2021,04,11,02,59,0.60
2021,04,11,03,00,0.60
2021,04,11,03,01,0.60
2021,04,11,03,02,0.60
2021,04,11,03,03,0.60
2021,04,11,03,04,0.50
2021,04,11,03,05,0.50
2021,04,11,03,06,0.50
2021,04,11,03,07,0.50
2021,04,11,03,08,0.50
2021,04,11,03,09,0.50
2021,04,11,03,10,0.50
2021,04,11,03,11,0.50
2021,04,11,03,12,0.40
2021,04,11,03,13,0.40
2021,04,11,03,14,0.40
2021,04,11,03,15,0.40
2021,04,11,03,16,0.40
2021,04,11,03,17,0.40
2021,04,11,03,18,0.40
2021,04,11,03,19,0.40
2021,04,11,03,20,0.40
2021,04,11,03,21,0.30
2021,04,11,03,22,0.30
2021,04,11,03,23,0.30
2021,04,11,03,24,0.30
2021,04,11,03,25,0.30
2021,04,11,03,26,0.30
2021,04,11,03,27,0.30
2021,04,11,03,28,0.20
2021,04,11,03,29,0.20
2021,04,11,03,30,0.20
2021,04,11,03,31,0.20
2021,04,11,03,32,0.20
2021,04,11,03,33,0.20
2021,04,11,03,34,0.20
2021,04,11,03,35,0.20
2021,04,11,03,36,0.20
2021,04,11,03,37,0.20
2021,04,11,03,38,0.20
2021,04,11,03,39,0.10
2021,04,11,03,40,0.10
2021,04,11,03,41,0.10
2021,04,11,03,42,0.10
2021,04,11,03,43,0.10
2021,04,11,03,44,0.10
2021,04,11,03,45,0.10
2021,04,11,03,46,0.10
2021,04,11,03,47,0.10
2021,04,11,03,48,0.10
2021,04,11,03,49,0.10
2021,04,11,03,50,0.10
2021,04,11,03,51,0.10
2021,04,11,03,52,0.00
2021,04,11,03,53,0.00
2021,04,11,03,54,0.00
2021,04,11,03,55,0.00
2021,04,11,03,56,0.00
2021,04,11,03,57,0.00
2021,04,11,03,58,0.00
2021,04,11,03,59,0.00
2021,04,11,04,00,0.00
2021,04,11,04,01,0.00
2021,04,11,04,02,0.00
2021,04,11,04,03,0.00
2021,04,11,04,04,0.00
2021,04,11,04,05,0.00
2021,04,11,04,06,0.00
2021,04,11,04,07,0.00
2021,04,11,04,08,0.00
2021,04,11,04,09,0.00
2021,04,11,04,10,0.00
2021,04,11,04,11,0.00
2021,04,11,04,12,-0.10
2021,04,11,04,13,-0.10
2021,04,11,04,14,-0.10
2021,04,11,04,15,-0.10
2021,04,11,04,16,-0.10
2021,04,11,04,17,-0.10
2021,04,11,04,18,-0.10
2021,04,11,04,19,-0.10
2021,04,11,04,20,-0.10
2021,04,11,04,21,-0.10
2021,04,11,04,22,-0.10
2021,04,11,04,23,-0.10
2021,04,11,04,24,-0.10
2021,04,11,04,25,-0.10
2021,04,11,04,26,-0.10
2021,04,11,04,27,-0.10
2021,04,11,04,28,0.00
2021,04,11,04,29,0.00
2021,04,11,04,30,0.00
2021,04,11,04,31,0.00
2021,04,11,04,32,0.00
2021,04,11,04,33,0.00
2021,04,11,04,34,0.00
2021,04,11,04,35,-0.10
2021,04,11,04,36,-0.10
2021,04,11,04,37,-0.10
2021,04,11,04,38,-0.10
2021,04,11,04,39,-0.10
2021,04,11,04,40,-0.10
2021,04,11,04,41,-0.20
2021,04,11,04,42,-0.20
2021,04,11,04,43,-0.20
2021,04,11,04,44,-0.20
2021,04,11,04,45,-0.20
2021,04,11,04,46,-0.20
2021,04,11,04,47,-0.20
2021,04,11,04,48,-0.20
2021,04,11,04,49,-0.20
2021,04,11,04,50,-0.20
2021,04,11,04,51,-0.20
2021,04,11,04,52,-0.20
2021,04,11,04,53,-0.20
2021,04,11,04,54,-0.20
2021,04,11,04,55,-0.20
2021,04,11,04,56,-0.20
2021,04,11,04,57,-0.20
2021,04,11,04,58,-0.20
2021,04,11,04,59,-0.20
2021,04,11,05,00,-0.20
2021,04,11,05,01,-0.20
2021,04,11,05,02,-0.20
2021,04,11,05,03,-0.20
2021,04,11,05,04,-0.20
2021,04,11,05,05,-0.20
2021,04,11,05,06,-0.20
2021,04,11,05,07,-0.20
2021,04,11,05,08,-0.20
2021,04,11,05,09,-0.20
2021,04,11,05,10,-0.20
2021,04,11,05,11,-0.20
2021,04,11,05,12,-0.30
2021,04,11,05,13,-0.30
2021,04,11,05,14,-0.30
2021,04,11,05,15,-0.30
2021,04,11,05,16,-0.30
2021,04,11,05,17,-0.30
2021,04,11,05,18,-0.30
2021,04,11,05,19,-0.30
2021,04,11,05,20,-0.30
2021,04,11,05,21,-0.30
2021,04,11,05,22,-0.30
2021,04,11,05,23,-0.30
2021,04,11,05,24,-0.30
2021,04,11,05,25,-0.30
2021,04,11,05,26,-0.30
2021,04,11,05,27,-0.30
2021,04,11,05,28,-0.30
2021,04,11,05,29,-0.30
2021,04,11,05,30,-0.30
2021,04,11,05,31,-0.30
2021,04,11,05,32,-0.30
2021,04,11,05,33,-0.30
2021,04,11,05,34,-0.30
2021,04,11,05,35,-0.30
2021,04,11,05,36,-0.30
2021,04,11,05,37,-0.30
2021,04,11,05,38,-0.30
2021,04,11,05,39,-0.30
2021,04,11,05,40,-0.30
2021,04,11,05,41,-0.30
2021,04,11,05,42,-0.30
2021,04,11,05,43,-0.30
2021,04,11,05,44,-0.30
2021,04,11,05,45,-0.30
2021,04,11,05,46,-0.30
2021,04,11,05,47,-0.30
2021,04,11,05,48,-0.30
2021,04,11,05,49,-0.30
2021,04,11,05,50,-0.30
2021,04,11,05,51,-0.30
2021,04,11,05,52,-0.30
2021,04,11,05,53,-0.30
2021,04,11,05,54,-0.30
2021,04,11,05,55,-0.30
2021,04,11,05,56,-0.30
2021,04,11,05,57,-0.30
2021,04,11,05,58,-0.20
2021,04,11,05,59,-0.20
2021,04,11,06,00,-0.20
2021,04,11,06,01,-0.20
2021,04,11,06,02,-0.20
2021,04,11,06,03,-0.20
2021,04,11,06,04,-0.20
2021,04,11,06,05,-0.20
2021,04,11,06,06,-0.20
2021,04,11,06,07,-0.20
2021,04,11,06,08,-0.20
2021,04,11,06,09,-0.20
2021,04,11,06,10,-0.20
2021,04,11,06,11,-0.20
2021,04,11,06,12,-0.20
2021,04,11,06,13,-0.20
2021,04,11,06,14,-0.20
2021,04,11,06,15,-0.20
2021,04,11,06,16,-0.20
2021,04,11,06,17,-0.20
2021,04,11,06,18,-0.20
2021,04,11,06,19,-0.20
2021,04,11,06,20,-0.20
2021,04,11,06,21,-0.20
2021,04,11,06,22,-0.30
2021,04,11,06,23,-0.30
2021,04,11,06,24,-0.30
2021,04,11,06,25,-0.30
2021,04,11,06,26,-0.30
2021,04,11,06,27,-0.30
2021,04,11,06,28,-0.30
2021,04,11,06,29,-0.30
2021,04,11,06,30,-0.40
2021,04,11,06,31,-0.40
2021,04,11,06,32,-0.40
2021,04,11,06,33,-0.40
2021,04,11,06,34,-0.40
2021,04,11,06,35,-0.40
2021,04,11,06,36,-0.40
2021,04,11,06,37,-0.40
2021,04,11,06,38,-0.50
2021,04,11,06,39,-0.50
2021,04,11,06,40,-0.50
2021,04,11,06,41,-0.50
2021,04,11,06,42,-0.50
2021,04,11,06,43,-0.50
2021,04,11,06,44,-0.50
2021,04,11,06,45,-0.50
2021,04,11,06,46,-0.50
2021,04,11,06,47,-0.50
2021,04,11,06,48,-0.60
2021,04,11,06,49,-0.60
2021,04,11,06,50,-0.60
2021,04,11,06,51,-0.60
2021,04,11,06,52,-0.60
2021,04,11,06,53,-0.50
2021,04,11,06,54,-0.50
2021,04,11,06,55,-0.50
2021,04,11,06,56,-0.40
2021,04,11,06,57,-0.40
2021,04,11,06,58,-0.40
2021,04,11,06,59,-0.30
2021,04,11,07,00,-0.30
2021,04,11,07,01,-0.30
2021,04,11,07,02,-0.30
2021,04,11,07,03,-0.20
2021,04,11,07,04,-0.20
2021,04,11,07,05,-0.20
2021,04,11,07,06,-0.20
2021,04,11,07,07,-0.20
2021,04,11,07,08,-0.20
2021,04,11,07,09,-0.20
2021,04,11,07,10,-0.20
2021,04,11,07,11,-0.20
2021,04,11,07,12,-0.20
2021,04,11,07,13,-0.20
2021,04,11,07,14,-0.20
2021,04,11,07,15,-0.20
2021,04,11,07,16,-0.20
2021,04,11,07,17,-0.20
2021,04,11,07,18,-0.20
2021,04,11,07,19,-0.10
2021,04,11,07,20,-0.10
2021,04,11,07,21,-0.10
2021,04,11,07,22,-0.10
2021,04,11,07,23,-0.10
2021,04,11,07,24,-0.10
2021,04,11,07,25,0.00
2021,04,11,07,26,0.00
2021,04,11,07,27,0.10
2021,04,11,07,28,0.10
2021,04,11,07,29,0.10
2021,04,11,07,30,0.20
2021,04,11,07,31,0.20
2021,04,11,07,32,0.30
2021,04,11,07,33,0.30
2021,04,11,07,34,0.40
2021,04,11,07,35,0.40
2021,04,11,07,36,0.50
2021,04,11,07,37,0.60
2021,04,11,07,38,0.60
2021,04,11,07,39,0.70
2021,04,11,07,40,0.70
2021,04,11,07,41,0.70
2021,04,11,07,42,0.80
2021,04,11,07,43,0.80
2021,04,11,07,44,0.80
2021,04,11,07,45,0.80
2021,04,11,07,46,0.90
2021,04,11,07,47,0.90
2021,04,11,07,48,0.90
2021,04,11,07,49,1.00
2021,04,11,07,50,1.00
2021,04,11,07,51,1.10
2021,04,11,07,52,1.10
2021,04,11,07,53,1.10
2021,04,11,07,54,1.20
2021,04,11,07,55,1.20
2021,04,11,07,56,1.30
2021,04,11,07,57,1.30
2021,04,11,07,58,1.30
2021,04,11,07,59,1.40
2021,04,11,08,00,1.50
2021,04,11,08,01,1.50
2021,04,11,08,02,1.60
2021,04,11,08,03,1.70
2021,04,11,08,04,1.80
2021,04,11,08,05,1.80
2021,04,11,08,06,2.00
2021,04,11,08,07,2.10
2021,04,11,08,08,2.20
2021,04,11,08,09,2.30
2021,04,11,08,10,2.40
2021,04,11,08,11,2.50
2021,04,11,08,12,2.60
2021,04,11,08,13,2.70
2021,04,11,08,14,2.80
2021,04,11,08,15,2.90
2021,04,11,08,16,3.10
2021,04,11,08,17,3.20
2021,04,11,08,18,3.30
2021,04,11,08,19,3.40
2021,04,11,08,20,3.50
2021,04,11,08,21,3.60
2021,04,11,08,22,3.70
2021,04,11,08,23,3.80
2021,04,11,08,24,3.90
2021,04,11,08,25,4.00
2021,04,11,08,26,4.10
2021,04,11,08,27,4.20
2021,04,11,08,28,4.30
2021,04,11,08,29,4.30
2021,04,11,08,30,4.40
2021,04,11,08,31,4.50
2021,04,11,08,32,4.50
2021,04,11,08,33,4.60
2021,04,11,08,34,4.60
2021,04,11,08,35,4.60
2021,04,11,08,36,4.70
2021,04,11,08,37,4.70
2021,04,11,08,38,4.80
2021,04,11,08,39,4.90
2021,04,11,08,40,4.90
2021,04,11,08,41,4.90
2021,04,11,08,42,5.00
2021,04,11,08,43,5.00
2021,04,11,08,44,5.10
2021,04,11,08,45,5.10
2021,04,11,08,46,5.10
2021,04,11,08,47,5.10
2021,04,11,08,48,5.10
2021,04,11,08,49,5.10
2021,04,11,08,50,5.10
2021,04,11,08,51,5.10
2021,04,11,08,52,5.20
2021,04,11,08,53,5.20
2021,04,11,08,54,5.30
2021,04,11,08,55,5.30
2021,04,11,08,56,5.30
2021,04,11,08,57,5.30
2021,04,11,08,58,5.30
2021,04,11,08,59,5.40
2021,04,11,09,00,5.40
2021,04,11,09,01,5.50
2021,04,11,09,02,5.50
2021,04,11,09,03,5.60
2021,04,11,09,04,5.60
2021,04,11,09,05,5.70
2021,04,11,09,06,5.80
2021,04,11,09,07,5.80
2021,04,11,09,08,5.80
2021,04,11,09,09,5.80
2021,04,11,09,10,5.80
2021,04,11,09,11,5.80
2021,04,11,09,12,5.90
2021,04,11,09,13,5.90
2021,04,11,09,14,5.90
2021,04,11,09,15,5.90
2021,04,11,09,16,5.90
2021,04,11,09,17,5.90
2021,04,11,09,18,5.90
2021,04,11,09,19,5.90
2021,04,11,09,20,5.90
2021,04,11,09,21,6.00
2021,04,11,09,22,6.00
2021,04,11,09,23,6.10
2021,04,11,09,24,6.10
2021,04,11,09,25,6.10
2021,04,11,09,26,6.20
2021,04,11,09,27,6.20
2021,04,11,09,28,6.30
2021,04,11,09,29,6.30
2021,04,11,09,30,6.40
2021,04,11,09,31,6.40
2021,04,11,09,32,6.40
2021,04,11,09,33,6.50
2021,04,11,09,34,6.50
2021,04,11,09,35,6.40
2021,04,11,09,36,6.40
2021,04,11,09,37,6.40
2021,04,11,09,38,6.40
2021,04,11,09,39,6.30
2021,04,11,09,40,6.30
2021,04,11,09,41,6.30
2021,04,11,09,42,6.30
2021,04,11,09,43,6.40
2021,04,11,09,44,6.40
2021,04,11,09,45,6.50
2021,04,11,09,46,6.60
2021,04,11,09,47,6.60
2021,04,11,09,48,6.70
2021,04,11,09,49,6.70
2021,04,11,09,50,6.80
2021,04,11,09,51,6.80
2021,04,11,09,52,6.80
2021,04,11,09,53,6.80
2021,04,11,09,54,6.80
2021,04,11,09,55,6.80
2021,04,11,09,56,6.80
2021,04,11,09,57,6.70
2021,04,11,09,58,6.70
2021,04,11,09,59,6.60
2021,04,11,10,00,6.60
2021,04,11,10,01,6.70
2021,04,11,10,02,6.70
2021,04,11,10,03,6.70
2021,04,11,10,04,6.80
2021,04,11,10,05,6.80
2021,04,11,10,06,6.90
2021,04,11,10,07,6.90
2021,04,11,10,08,7.00
2021,04,11,10,09,7.00
2021,04,11,10,10,7.10
2021,04,11,10,11,7.20
2021,04,11,10,12,7.20
2021,04,11,10,13,7.20
2021,04,11,10,14,7.20
2021,04,11,10,15,7.20
2021,04,11,10,16,7.20
2021,04,11,10,17,7.20
2021,04,11,10,18,7.30
2021,04,11,10,19,7.30
2021,04,11,10,20,7.30
2021,04,11,10,21,7.30
2021,04,11,10,22,7.40
2021,04,11,10,23,7.30
2021,04,11,10,24,7.30
2021,04,11,10,25,7.30
2021,04,11,10,26,7.30
2021,04,11,10,27,7.30
2021,04,11,10,28,7.30
2021,04,11,10,29,7.30
2021,04,11,10,30,7.30
2021,04,11,10,31,7.30
2021,04,11,10,32,7.30
2021,04,11,10,33,7.30
2021,04,11,10,34,7.30
2021,04,11,10,35,7.30
2021,04,11,10,36,7.20
2021,04,11,10,37,7.20
2021,04,11,10,38,7.20
2021,04,11,10,39,7.30
2021,04,11,10,40,7.30
2021,04,11,10,41,7.30
2021,04,11,10,42,7.30
2021,04,11,10,43,7.30
2021,04,11,10,44,7.40
2021,04,11,10,45,7.40
2021,04,11,10,46,7.50
2021,04,11,10,47,7.50
2021,04,11,10,48,7.60
2021,04,11,10,49,7.60
2021,04,11,10,50,7.60
2021,04,11,10,51,7.60
2021,04,11,10,52,7.60
2021,04,11,10,53,7.70
2021,04,11,10,54,7.70
2021,04,11,10,55,7.70
2021,04,11,10,56,7.70
2021,04,11,10,57,7.70
2021,04,11,10,58,7.70
2021,04,11,10,59,7.70
2021,04,11,11,00,7.60
2021,04,11,11,01,7.60
2021,04,11,11,02,7.60
2021,04,11,11,03,7.70
2021,04,11,11,04,7.70
2021,04,11,11,05,7.80
2021,04,11,11,06,7.80
2021,04,11,11,07,7.90
2021,04,11,11,08,7.90
2021,04,11,11,09,7.90
2021,04,11,11,10,7.80
2021,04,11,11,11,7.80
2021,04,11,11,12,7.80
2021,04,11,11,13,7.80
2021,04,11,11,14,7.80
2021,04,11,11,15,7.80
2021,04,11,11,16,7.80
2021,04,11,11,17,7.80
2021,04,11,11,18,7.80
2021,04,11,11,19,7.80
2021,04,11,11,20,7.80
2021,04,11,11,21,7.70
2021,04,11,11,22,7.70
2021,04,11,11,23,7.60
2021,04,11,11,24,7.60
2021,04,11,11,25,7.60
2021,04,11,11,26,7.70
2021,04,11,11,27,7.70
2021,04,11,11,28,7.80
2021,04,11,11,29,7.80
2021,04,11,11,30,7.80
2021,04,11,11,31,7.80
2021,04,11,11,32,7.80
2021,04,11,11,33,7.80
2021,04,11,11,34,7.80
2021,04,11,11,35,7.70
2021,04,11,11,36,7.70
2021,04,11,11,37,7.80
2021,04,11,11,38,7.80
2021,04,11,11,39,7.80
2021,04,11,11,40,7.80
2021,04,11,11,41,7.80
2021,04,11,11,42,7.80
2021,04,11,11,43,7.80
2021,04,11,11,44,7.80
2021,04,11,11,45,7.70
2021,04,11,11,46,7.70
2021,04,11,11,47,7.70
2021,04,11,11,48,7.70
2021,04,11,11,49,7.70
2021,04,11,11,50,7.70
2021,04,11,11,51,7.70
2021,04,11,11,52,7.80
2021,04,11,11,53,7.80
2021,04,11,11,54,7.90
2021,04,11,11,55,7.90
2021,04,11,11,56,8.00
2021,04,11,11,57,8.00
2021,04,11,11,58,8.10
2021,04,11,11,59,8.10
2021,04,11,12,00,8.20
2021,04,11,12,01,8.20
2021,04,11,12,02,8.20
2021,04,11,12,03,8.30
2021,04,11,12,04,8.30
2021,04,11,12,05,8.30
2021,04,11,12,06,8.40
2021,04,11,12,07,8.50
2021,04,11,12,08,8.60
2021,04,11,12,09,8.60
2021,04,11,12,10,8.60
2021,04,11,12,11,8.60
2021,04,11,12,12,8.60
2021,04,11,12,13,8.60
2021,04,11,12,14,8.60
2021,04,11,12,15,8.60
2021,04,11,12,16,8.70
2021,04,11,12,17,8.70
2021,04,11,12,18,8.70
2021,04,11,12,19,8.60
2021,04,11,12,20,8.60
2021,04,11,12,21,8.60
2021,04,11,12,22,8.50
2021,04,11,12,23,8.50
2021,04,11,12,24,8.50
2021,04,11,12,25,8.50
2021,04,11,12,26,8.50
2021,04,11,12,27,8.50
2021,04,11,12,28,8.40
2021,04,11,12,29,8.50
2021,04,11,12,30,8.50
2021,04,11,12,31,8.60
2021,04,11,12,32,8.60
2021,04,11,12,33,8.70
2021,04,11,12,34,8.80
2021,04,11,12,35,8.80
2021,04,11,12,36,8.80
2021,04,11,12,37,8.80
2021,04,11,12,38,8.80
2021,04,11,12,39,8.80
2021,04,11,12,40,8.70
2021,04,11,12,41,8.70
2021,04,11,12,42,8.70
2021,04,11,12,43,8.70
2021,04,11,12,44,8.60
2021,04,11,12,45,8.60
2021,04,11,12,46,8.60
2021,04,11,12,47,8.60
2021,04,11,12,48,8.60
2021,04,11,12,49,8.60
2021,04,11,12,50,8.70
2021,04,11,12,51,8.70
2021,04,11,12,52,8.60
2021,04,11,12,53,8.60
2021,04,11,12,54,8.70
2021,04,11,12,55,8.70
2021,04,11,12,56,8.80
2021,04,11,12,57,8.80
2021,04,11,12,58,8.80
2021,04,11,12,59,8.90
2021,04,11,13,00,9.00
2021,04,11,13,01,9.00
2021,04,11,13,02,9.10
2021,04,11,13,03,9.10
2021,04,11,13,04,9.00
2021,04,11,13,05,9.00
2021,04,11,13,06,9.00
2021,04,11,13,07,9.00
2021,04,11,13,08,9.10
2021,04,11,13,09,9.10
2021,04,11,13,10,9.10
2021,04,11,13,11,9.10
2021,04,11,13,12,9.10
2021,04,11,13,13,9.20
2021,04,11,13,14,9.20
2021,04,11,13,15,9.20
2021,04,11,13,16,9.10
2021,04,11,13,17,9.00
2021,04,11,13,18,8.90
2021,04,11,13,19,8.90
2021,04,11,13,20,8.90
2021,04,11,13,21,9.00
2021,04,11,13,22,9.10
2021,04,11,13,23,9.10
2021,04,11,13,24,9.10
2021,04,11,13,25,9.10
2021,04,11,13,26,9.10
2021,04,11,13,27,9.00
2021,04,11,13,28,9.00
2021,04,11,13,29,8.90
2021,04,11,13,30,8.90
2021,04,11,13,31,8.80
2021,04,11,13,32,8.80
2021,04,11,13,33,8.80
2021,04,11,13,34,8.70
2021,04,11,13,35,8.70
2021,04,11,13,36,8.60
2021,04,11,13,37,8.60
2021,04,11,13,38,8.70
2021,04,11,13,39,8.60
2021,04,11,13,40,8.60
2021,04,11,13,41,8.60
2021,04,11,13,42,8.60
2021,04,11,13,43,8.60
2021,04,11,13,44,8.60
2021,04,11,13,45,8.60
2021,04,11,13,46,8.60
2021,04,11,13,47,8.70
2021,04,11,13,48,8.70
2021,04,11,13,49,8.80
2021,04,11,13,50,8.80
2021,04,11,13,51,8.90
2021,04,11,13,52,8.90
2021,04,11,13,53,8.80
2021,04,11,13,54,8.90
2021,04,11,13,55,8.90
2021,04,11,13,56,8.90
2021,04,11,13,57,8.90
2021,04,11,13,58,8.90
2021,04,11,13,59,8.90
2021,04,11,14,00,8.90
2021,04,11,14,01,9.00
2021,04,11,14,02,9.00
2021,04,11,14,03,9.10
2021,04,11,14,04,9.10
2021,04,11,14,05,9.10
2021,04,11,14,06,9.00
2021,04,11,14,07,9.00
2021,04,11,14,08,8.90
2021,04,11,14,09,8.90
2021,04,11,14,10,9.00
2021,04,11,14,11,9.00
2021,04,11,14,12,9.10
2021,04,11,14,13,9.10
2021,04,11,14,14,9.10
2021,04,11,14,15,9.10
2021,04,11,14,16,9.20
2021,04,11,14,17,9.20
2021,04,11,14,18,9.30
2021,04,11,14,19,9.30
2021,04,11,14,20,9.40
2021,04,11,14,21,9.40
2021,04,11,14,22,9.40
2021,04,11,14,23,9.40
2021,04,11,14,24,9.40
2021,04,11,14,25,9.50
2021,04,11,14,26,9.60
2021,04,11,14,27,9.60
2021,04,11,14,28,9.80
2021,04,11,14,29,9.90
2021,04,11,14,30,9.90
2021,04,11,14,31,9.90
2021,04,11,14,32,9.90
2021,04,11,14,33,9.90
2021,04,11,14,34,10.00
2021,04,11,14,35,10.00
2021,04,11,14,36,10.10
2021,04,11,14,37,10.10
2021,04,11,14,38,10.20
2021,04,11,14,39,10.10
2021,04,11,14,40,10.00
2021,04,11,14,41,9.90
2021,04,11,14,42,9.90
2021,04,11,14,43,9.80
2021,04,11,14,44,9.80
2021,04,11,14,45,9.80
2021,04,11,14,46,9.90
2021,04,11,14,47,9.90
2021,04,11,14,48,10.00
2021,04,11,14,49,10.10
2021,04,11,14,50,10.10
2021,04,11,14,51,10.20
2021,04,11,14,52,10.20
2021,04,11,14,53,10.10
2021,04,11,14,54,10.10
2021,04,11,14,55,10.00
2021,04,11,14,56,9.90
2021,04,11,14,57,9.90
2021,04,11,14,58,9.90
2021,04,11,14,59,10.00
2021,04,11,15,00,10.00
2021,04,11,15,01,10.10
2021,04,11,15,02,10.10
2021,04,11,15,03,10.10
2021,04,11,15,04,10.10
2021,04,11,15,05,10.10
2021,04,11,15,06,10.10
2021,04,11,15,07,10.20
2021,04,11,15,08,10.20
2021,04,11,15,09,10.20
2021,04,11,15,10,10.20
2021,04,11,15,11,10.20
2021,04,11,15,12,10.20
2021,04,11,15,13,10.20
2021,04,11,15,14,10.30
2021,04,11,15,15,10.30
2021,04,11,15,16,10.40
2021,04,11,15,17,10.50
2021,04,11,15,18,10.60
2021,04,11,15,19,10.60
2021,04,11,15,20,10.70
2021,04,11,15,21,10.70
2021,04,11,15,22,10.80
2021,04,11,15,23,10.80
2021,04,11,15,24,10.80
2021,04,11,15,25,10.80
2021,04,11,15,26,10.80
2021,04,11,15,27,10.80
2021,04,11,15,28,10.80
2021,04,11,15,29,10.80
2021,04,11,15,30,10.80
2021,04,11,15,31,10.90
2021,04,11,15,32,10.90
2021,04,11,15,33,10.90
2021,04,11,15,34,10.90
2021,04,11,15,35,10.90
2021,04,11,15,36,10.90
2021,04,11,15,37,11.00
2021,04,11,15,38,11.10
2021,04,11,15,39,11.10
2021,04,11,15,40,11.20
2021,04,11,15,41,11.20
2021,04,11,15,42,11.20
2021,04,11,15,43,11.20
2021,04,11,15,44,11.20
2021,04,11,15,45,11.20
2021,04,11,15,46,11.20
2021,04,11,15,47,11.20
2021,04,11,15,48,11.20
2021,04,11,15,49,11.20
2021,04,11,15,50,11.20
2021,04,11,15,51,11.20
2021,04,11,15,52,11.20
2021,04,11,15,53,11.20
2021,04,11,15,54,11.20
2021,04,11,15,55,11.10
2021,04,11,15,56,11.20
2021,04,11,15,57,11.10
2021,04,11,15,58,11.00
2021,04,11,15,59,11.00
2021,04,11,16,00,10.90
2021,04,11,16,01,10.90
2021,04,11,16,02,10.90
2021,04,11,16,03,11.00
2021,04,11,16,04,11.00
2021,04,11,16,05,11.10
2021,04,11,16,06,11.10
2021,04,11,16,07,11.10
2021,04,11,16,08,11.10
2021,04,11,16,09,11.00
2021,04,11,16,10,11.00
2021,04,11,16,11,10.90
2021,04,11,16,12,10.80
2021,04,11,16,13,10.70
2021,04,11,16,14,10.60
2021,04,11,16,15,10.50
2021,04,11,16,16,10.40
2021,04,11,16,17,10.30
2021,04,11,16,18,10.20
2021,04,11,16,19,10.20
2021,04,11,16,20,10.20
2021,04,11,16,21,10.20
2021,04,11,16,22,10.20
2021,04,11,16,23,10.20
2021,04,11,16,24,10.20
2021,04,11,16,25,10.30
2021,04,11,16,26,10.30
2021,04,11,16,27,10.30
2021,04,11,16,28,10.30
2021,04,11,16,29,10.20
2021,04,11,16,30,10.10
2021,04,11,16,31,10.10
2021,04,11,16,32,10.10
2021,04,11,16,33,10.10
2021,04,11,16,34,10.10
2021,04,11,16,35,10.00
2021,04,11,16,36,10.00
2021,04,11,16,37,10.00
2021,04,11,16,38,9.90
2021,04,11,16,39,9.90
2021,04,11,16,40,10.00
2021,04,11,16,41,10.00
2021,04,11,16,42,10.00
2021,04,11,16,43,10.00
2021,04,11,16,44,10.10
2021,04,11,16,45,10.10
2021,04,11,16,46,10.10
2021,04,11,16,47,10.20
2021,04,11,16,48,10.30
2021,04,11,16,49,10.30
2021,04,11,16,50,10.40
2021,04,11,16,51,10.40
2021,04,11,16,52,10.50
2021,04,11,16,53,10.50
2021,04,11,16,54,10.60
2021,04,11,16,55,10.70
2021,04,11,16,56,10.70
2021,04,11,16,57,10.80
2021,04,11,16,58,10.80
2021,04,11,16,59,10.90
2021,04,11,17,00,10.90
2021,04,11,17,01,11.00
2021,04,11,17,02,11.00
2021,04,11,17,03,11.10
2021,04,11,17,04,11.10
2021,04,11,17,05,11.20
2021,04,11,17,06,11.20
2021,04,11,17,07,11.20
2021,04,11,17,08,11.20
2021,04,11,17,09,11.20
2021,04,11,17,10,11.20
2021,04,11,17,11,11.20
2021,04,11,17,12,11.20
2021,04,11,17,13,11.20
2021,04,11,17,14,11.20
2021,04,11,17,15,11.20
2021,04,11,17,16,11.20
2021,04,11,17,17,11.20
2021,04,11,17,18,11.20
2021,04,11,17,19,11.10
2021,04,11,17,20,11.10
2021,04,11,17,21,11.00
2021,04,11,17,22,10.90
2021,04,11,17,23,10.80
2021,04,11,17,24,10.70
2021,04,11,17,25,10.60
2021,04,11,17,26,10.60
2021,04,11,17,27,10.60
2021,04,11,17,28,10.70
2021,04,11,17,29,10.70
2021,04,11,17,30,10.80
2021,04,11,17,31,10.70
2021,04,11,17,32,10.70
2021,04,11,17,33,10.70
2021,04,11,17,34,10.70
2021,04,11,17,35,10.70
2021,04,11,17,36,10.70
2021,04,11,17,37,10.80
2021,04,11,17,38,10.80
2021,04,11,17,39,10.80
2021,04,11,17,40,10.90
2021,04,11,17,41,10.90
2021,04,11,17,42,10.90
2021,04,11,17,43,10.90
2021,04,11,17,44,10.90
2021,04,11,17,45,11.00
2021,04,11,17,46,11.00
2021,04,11,17,47,11.10
2021,04,11,17,48,11.10
2021,04,11,17,49,11.10